Home > Weather > Berlin > Past weeks

Flag for Germany Past Weather in Berlin, Berlin, Germany — Yesterday and Last 2 Weeks

Now
63 °F

Clear.


Feels Like: 63 °F
Forecast: 60 / 73 °F
Wind: No wind

Location: Berlin-Tegel

Current Time: Jun 28, 2016 at 12:25:49 AM

Latest Report: Jun 27, 2016 at 11:50 PM


Visibility: 10 mi

Pressure: 30.01 "Hg

Humidity: 59%

Dew Point: 48 °F

Location of BerlinLocation

Past Weather in Berlin — Graph

°F

Berlin Temperature Yesterday

Maximum temperature yesterday: 75 °F (at 4:20 PM)
Minimum temperature yesterday: 55 °F (at 2:20 AM)
Average temperature yesterday: 66 °F

High & Low Weather Summary for the Past Weeks

 TemperatureHumidityPressure
High95 °F (Jun 24, 3:50 PM)94% (Jun 14, 2:20 AM)30.24 "Hg (Jun 14, 2:20 AM)
Low48 °F (Jun 20, 4:50 AM)23% (Jun 24, 4:20 PM)29.47 "Hg (Jun 14, 4:20 PM)
Average67 °F67%29.89 "Hg
* Reported Jun 12 11:20 PM — Jun 27 11:20 PM, Berlin, Weather by CustomWeather, © 2016

Note: Actual official high and low records may vary slightly from our data, if they occured in-between our weather recording intervals... More about our weather records

Advertising

Berlin Weather History for the Previous 24 Hours

Scroll right to see more
 ConditionsComfort  
Time TempWeatherWind HumidityBarometerVisibility
11:20 PM
Mon, Jun 27
63 °FClear.2 mph59%30.01 "Hg10 mi
10:50 PM66 °FClear.3 mph49%30.01 "Hg10 mi
10:20 PM66 °FSunny.5 mph49%30.01 "Hg10 mi
9:50 PM68 °FSunny.5 mph43%30.01 "Hg10 mi
9:20 PM68 °FSunny.7 mph43%30.01 "Hg10 mi
8:50 PM70 °FSunny.8 mph40%30.01 "Hg10 mi
8:20 PM72 °FSunny.8 mph36%30.01 "Hg10 mi
7:50 PM72 °FSunny.12 mph36%30.01 "Hg10 mi
7:20 PM73 °FSunny.13 mph33%30.01 "Hg10 mi
6:50 PM75 °FSunny.13 mph29%30.01 "Hg10 mi
6:20 PM73 °FPassing clouds.13 mph31%30.01 "HgN/A
5:50 PM75 °FPassing clouds.13 mph31%30.01 "HgN/A
5:20 PM75 °FPassing clouds.14 mph29%30.01 "HgN/A
4:50 PM75 °FSunny.14 mph29%30.01 "Hg10 mi
4:20 PM75 °FPassing clouds.13 mph34%30.01 "HgN/A
3:50 PM73 °FPassing clouds.13 mph36%30.01 "HgN/A
3:20 PM73 °FPassing clouds.13 mph36%30.04 "HgN/A
2:50 PM72 °FSunny.12 mph41%30.04 "Hg10 mi
2:20 PM72 °FScattered clouds.13 mph41%30.04 "HgN/A
1:50 PM72 °FScattered clouds.9 mph44%30.04 "HgN/A
1:20 PM72 °FScattered clouds.10 mph44%30.04 "HgN/A
12:50 PM68 °FScattered clouds.13 mph46%30.04 "HgN/A
12:20 PM68 °FScattered clouds.10 mph49%30.07 "HgN/A
11:50 AM70 °FScattered clouds.12 mph50%30.07 "HgN/A
11:20 AM68 °FPartly sunny.12 mph53%30.07 "HgN/A
10:50 AM68 °FPartly sunny.9 mph49%30.07 "HgN/A
10:20 AM66 °FPartly sunny.8 mph52%30.07 "HgN/A
9:50 AM64 °FPartly sunny.9 mph60%30.07 "HgN/A
9:20 AM63 °FScattered clouds.7 mph68%30.07 "HgN/A
8:50 AM63 °FPartly sunny.8 mph68%30.07 "HgN/A
8:20 AM61 °FPassing clouds.7 mph72%30.07 "HgN/A
7:50 AM61 °FPassing clouds.8 mph72%30.04 "HgN/A
7:20 AM61 °FSunny.7 mph68%30.07 "Hg10 mi
6:50 AM59 °FSunny.6 mph72%30.04 "Hg10 mi
6:20 AM59 °FPassing clouds.3 mph72%30.04 "HgN/A
5:50 AM57 °FPassing clouds.3 mph77%30.04 "HgN/A
5:20 AM57 °FPassing clouds.3 mph72%30.04 "HgN/A
4:50 AM57 °FPassing clouds.6 mph77%30.04 "HgN/A
4:20 AM55 °FClear.5 mph77%30.04 "Hg10 mi
3:50 AM55 °FClear.3 mph82%30.04 "Hg10 mi
3:20 AM55 °FClear.No wind82%30.01 "Hg10 mi
2:50 AM57 °FClear.No wind77%30.01 "Hg10 mi
2:20 AM55 °FClear.2 mph82%30.01 "Hg10 mi
1:50 AM57 °FClear.1 mph77%30.01 "Hg10 mi
1:20 AM59 °FClear.1 mph72%30.01 "Hg10 mi
12:50 AM59 °FClear.1 mph72%30.04 "Hg10 mi
12:20 AM61 °FClear.1 mph68%30.04 "Hg10 mi
Weather by CustomWeather, © 2016

See weather overviewHow to use our weather pages